VOE1784 LIPX-LFPO

Flight info

Callsign VOE1784
Flight time 1h 12m
Altitude 37000
Route OTZOM Y480 UPXUF L612 ADOSA DCT TAGIP DCT DESIP DCT SRN DCT INVOP DCT TERSI/N0438F380 DCT AOSTA DCT ORSUD DCT MOLUS DCT UNKIR DCT DJL
Aircraft A320/M-SDE3FGHIRWY/LB1

Departure

Time 2026-05-04 12:49
Airport Verona Villafranca Valerio Catullo Airport (LIPX)

Arrival

Time 2026-05-04 14:02
Airport Paris-Orly Airport (LFPO)
Time Latitude Longitude Altitude Speed Heading
2026-05-04 12:38 45.40408 10.90542 242 ft 0 kts 136°
2026-05-04 12:43 45.40406 10.90544 242 ft 1 kts 135°
2026-05-04 12:43 45.40402 10.90551 242 ft 1 kts 134°
2026-05-04 12:44 45.40400 10.90553 242 ft 2 kts 134°
2026-05-04 12:44 45.40384 10.90588 242 ft 5 kts 96°
2026-05-04 12:44 45.40405 10.90631 242 ft 7 kts 46°
2026-05-04 12:44 45.40439 10.90682 242 ft 10 kts 46°
2026-05-04 12:45 45.40484 10.90746 242 ft 8 kts 41°
2026-05-04 12:45 45.40529 10.90733 242 ft 7 kts 321°
2026-05-04 12:45 45.40561 10.90692 242 ft 7 kts 315°
2026-05-04 12:45 45.40595 10.90651 242 ft 6 kts 341°
2026-05-04 12:46 45.40622 10.90636 243 ft 2 kts 328°
2026-05-04 12:46 45.40626 10.90632 243 ft 0 kts 322°
2026-05-04 12:46 45.40628 10.90628 243 ft 1 kts 314°
2026-05-04 12:47 45.40631 10.90606 244 ft 4 kts 277°
2026-05-04 12:47 45.40631 10.90588 245 ft 0 kts 269°
2026-05-04 12:47 45.40631 10.90586 245 ft 1 kts 270°
2026-05-04 12:48 45.40632 10.90567 245 ft 3 kts 270°
2026-05-04 12:48 45.40624 10.90517 247 ft 8 kts 257°
2026-05-04 12:48 45.40614 10.90425 248 ft 11 kts 262°
2026-05-04 12:48 45.40583 10.90327 247 ft 14 kts 231°
2026-05-04 12:49 45.40401 10.90061 245 ft 73 kts 225°
2026-05-04 12:49 45.39890 10.89316 241 ft 136 kts 225°
2026-05-04 12:49 45.39131 10.88214 508 ft 161 kts 226°
2026-05-04 12:49 45.38333 10.87065 1176 ft 166 kts 225°
2026-05-04 12:50 45.37520 10.85891 1895 ft 171 kts 226°
2026-05-04 12:50 45.36652 10.84588 2343 ft 192 kts 227°
2026-05-04 12:50 45.35890 10.82938 2750 ft 214 kts 251°
2026-05-04 12:50 45.35391 10.80834 3298 ft 233 kts 250°
2026-05-04 12:51 45.34824 10.78609 4056 ft 246 kts 253°
2026-05-04 12:51 45.34643 10.76174 4880 ft 256 kts 277°
2026-05-04 12:51 45.35039 10.73654 5706 ft 265 kts 284°
2026-05-04 12:51 45.35535 10.71095 6627 ft 271 kts 285°
2026-05-04 12:52 45.36073 10.68485 7475 ft 279 kts 285°
2026-05-04 12:52 45.36627 10.65815 8370 ft 284 kts 285°
2026-05-04 12:52 45.37177 10.63104 9271 ft 287 kts 285°
2026-05-04 12:52 45.37720 10.60350 10126 ft 291 kts 284°
2026-05-04 12:53 45.38273 10.57484 10619 ft 312 kts 284°
2026-05-04 12:53 45.38856 10.54416 11124 ft 328 kts 284°
2026-05-04 12:53 45.39450 10.51254 11882 ft 333 kts 284°
2026-05-04 12:53 45.40050 10.48050 12686 ft 337 kts 284°
2026-05-04 12:54 45.40654 10.44808 13470 ft 341 kts 283°
2026-05-04 12:54 45.41264 10.41530 14227 ft 345 kts 283°
2026-05-04 12:54 45.41881 10.38218 14967 ft 348 kts 283°
2026-05-04 12:54 45.42506 10.34869 15687 ft 352 kts 283°
2026-05-04 12:55 45.43137 10.31489 16383 ft 355 kts 283°
2026-05-04 12:55 45.43714 10.28402 16986 ft 358 kts 283°
2026-05-04 12:55 45.44356 10.24959 17635 ft 362 kts 283°
2026-05-04 12:55 45.44872 10.22190 18159 ft 364 kts 283°
2026-05-04 12:56 45.45522 10.18687 18787 ft 368 kts 283°
2026-05-04 12:56 45.46178 10.15152 19418 ft 370 kts 283°
2026-05-04 12:56 45.46839 10.11589 20032 ft 373 kts 283°
2026-05-04 12:56 45.47500 10.07999 20622 ft 377 kts 283°
2026-05-04 12:57 45.48162 10.04377 21208 ft 380 kts 283°
2026-05-04 12:57 45.48831 10.00709 21786 ft 383 kts 283°
2026-05-04 12:57 45.49502 9.97025 22354 ft 386 kts 283°
2026-05-04 12:57 45.50180 9.93304 22905 ft 389 kts 283°
2026-05-04 12:58 45.50863 9.89559 23459 ft 393 kts 283°
2026-05-04 12:58 45.51554 9.85782 24005 ft 395 kts 283°
2026-05-04 12:58 45.52247 9.81978 24526 ft 398 kts 283°
2026-05-04 12:58 45.52940 9.78145 25013 ft 400 kts 283°
2026-05-04 12:59 45.53634 9.74290 25476 ft 403 kts 283°
2026-05-04 12:59 45.54317 9.70499 25912 ft 405 kts 283°
2026-05-04 12:59 45.55020 9.66602 26353 ft 408 kts 283°
2026-05-04 12:59 45.55727 9.62662 26779 ft 411 kts 283°
2026-05-04 13:00 45.56436 9.58708 27187 ft 413 kts 283°
2026-05-04 13:00 45.57151 9.54726 27598 ft 415 kts 283°
2026-05-04 13:00 45.57864 9.50722 27985 ft 417 kts 283°
2026-05-04 13:00 45.58577 9.46698 28378 ft 419 kts 283°
2026-05-04 13:01 45.59293 9.42656 28738 ft 422 kts 283°
2026-05-04 13:01 45.60015 9.38578 29102 ft 423 kts 283°
2026-05-04 13:01 45.60711 9.34635 29437 ft 426 kts 283°
2026-05-04 13:01 45.61433 9.30539 29774 ft 427 kts 283°
2026-05-04 13:02 45.62162 9.26407 30046 ft 430 kts 283°
2026-05-04 13:02 45.63622 9.18123 30124 ft 437 kts 283°
2026-05-04 13:03 45.65543 9.09753 30259 ft 451 kts 294°
2026-05-04 13:03 45.66924 9.05709 30419 ft 454 kts 295°
2026-05-04 13:03 45.68315 9.01643 30657 ft 455 kts 295°
2026-05-04 13:03 45.69704 8.97572 30927 ft 455 kts 295°
2026-05-04 13:04 45.71089 8.93504 31221 ft 454 kts 294°
2026-05-04 13:04 45.72464 8.89448 31525 ft 453 kts 294°
2026-05-04 13:04 45.73834 8.85387 31808 ft 451 kts 294°
2026-05-04 13:04 45.75197 8.81351 32050 ft 451 kts 294°
2026-05-04 13:05 45.76565 8.77302 32316 ft 451 kts 294°
2026-05-04 13:05 45.77928 8.73260 32589 ft 451 kts 294°
2026-05-04 13:05 45.79290 8.69216 32871 ft 450 kts 294°
2026-05-04 13:05 45.80647 8.65182 33151 ft 449 kts 294°
2026-05-04 13:06 45.82002 8.61139 33111 ft 450 kts 294°
2026-05-04 13:06 45.84693 8.53086 33350 ft 446 kts 294°
2026-05-04 13:06 45.86008 8.49151 34282 ft 429 kts 294°
2026-05-04 13:07 45.87291 8.45314 34787 ft 424 kts 294°
2026-05-04 13:07 45.88553 8.41532 35025 ft 419 kts 294°
2026-05-04 13:07 45.89810 8.37748 35109 ft 421 kts 294°
2026-05-04 13:08 45.92352 8.30072 35295 ft 430 kts 294°
2026-05-04 13:08 45.93639 8.26180 35473 ft 432 kts 294°
2026-05-04 13:08 45.94926 8.22287 35771 ft 431 kts 294°
2026-05-04 13:08 45.96212 8.18395 36061 ft 431 kts 294°
2026-05-04 13:09 45.97493 8.14506 36340 ft 430 kts 294°
2026-05-04 13:09 45.98769 8.10621 36591 ft 430 kts 293°
2026-05-04 13:09 46.00045 8.06726 36852 ft 429 kts 294°
2026-05-04 13:09 46.01313 8.02865 37177 ft 425 kts 294°
2026-05-04 13:10 46.02569 7.99034 37497 ft 422 kts 293°
2026-05-04 13:10 46.03813 7.95214 37752 ft 421 kts 293°
2026-05-04 13:10 46.05055 7.91405 37956 ft 421 kts 293°
2026-05-04 13:10 46.06287 7.87635 38077 ft 422 kts 293°
2026-05-04 13:11 46.07537 7.83800 38083 ft 423 kts 293°
2026-05-04 13:11 46.10054 7.76050 38083 ft 430 kts 293°
2026-05-04 13:12 46.12593 7.68205 38080 ft 433 kts 293°
2026-05-04 13:12 46.15133 7.60346 38072 ft 433 kts 293°
2026-05-04 13:13 46.17668 7.52465 38078 ft 433 kts 293°
2026-05-04 13:13 46.19788 7.45858 38076 ft 434 kts 293°
2026-05-04 13:14 46.22319 7.37951 38078 ft 434 kts 293°
2026-05-04 13:14 46.24849 7.30032 38074 ft 434 kts 292°
2026-05-04 13:15 46.27355 7.22156 38073 ft 434 kts 292°
2026-05-04 13:15 46.29870 7.14215 38073 ft 435 kts 292°
2026-05-04 13:16 46.32381 7.06262 38074 ft 434 kts 292°
2026-05-04 13:16 46.34895 6.98309 38072 ft 435 kts 292°
2026-05-04 13:17 46.37401 6.90351 38075 ft 434 kts 292°
2026-05-04 13:17 46.39896 6.82388 38077 ft 434 kts 292°
2026-05-04 13:18 46.42379 6.74407 38082 ft 434 kts 292°
2026-05-04 13:18 46.44961 6.66491 38080 ft 436 kts 297°
2026-05-04 13:19 46.47990 6.58876 38078 ft 436 kts 297°
2026-05-04 13:19 46.51007 6.51239 38079 ft 436 kts 297°
2026-05-04 13:20 46.54019 6.43594 38080 ft 436 kts 297°
2026-05-04 13:20 46.57009 6.35997 38082 ft 436 kts 297°
2026-05-04 13:21 46.60012 6.28335 38082 ft 436 kts 297°
2026-05-04 13:21 46.63007 6.20673 38081 ft 436 kts 297°
2026-05-04 13:22 46.66018 6.12946 38079 ft 436 kts 297°
2026-05-04 13:22 46.68987 6.05311 38084 ft 436 kts 297°
2026-05-04 13:23 46.71971 5.97612 38084 ft 436 kts 297°
2026-05-04 13:23 46.74947 5.89899 38079 ft 437 kts 297°
2026-05-04 13:24 46.77923 5.82166 38073 ft 437 kts 296°
2026-05-04 13:24 46.80959 5.74484 38064 ft 439 kts 302°
2026-05-04 13:25 46.85088 5.67875 38062 ft 443 kts 314°
2026-05-04 13:25 46.87345 5.64806 38059 ft 443 kts 314°
2026-05-04 13:25 46.91844 5.58638 38053 ft 443 kts 314°
2026-05-04 13:26 46.96333 5.52441 38050 ft 444 kts 314°
2026-05-04 13:26 47.00825 5.46237 38045 ft 444 kts 314°
2026-05-04 13:27 47.05323 5.40033 38040 ft 444 kts 314°
2026-05-04 13:27 47.09812 5.33815 38038 ft 444 kts 314°
2026-05-04 13:28 47.14291 5.27590 38037 ft 444 kts 314°
2026-05-04 13:28 47.18786 5.21347 38037 ft 444 kts 314°
2026-05-04 13:29 47.21026 5.18232 37732 ft 442 kts 314°
2026-05-04 13:29 47.23260 5.15116 37025 ft 442 kts 314°
2026-05-04 13:29 47.25488 5.11995 36303 ft 442 kts 313°
2026-05-04 13:29 47.27716 5.08854 35520 ft 444 kts 313°
2026-05-04 13:30 47.29906 5.05624 34604 ft 448 kts 311°
2026-05-04 13:30 47.32070 5.02301 33689 ft 452 kts 310°
2026-05-04 13:30 47.34231 4.98907 32784 ft 454 kts 310°
2026-05-04 13:30 47.36391 4.95492 31860 ft 457 kts 310°
2026-05-04 13:31 47.38572 4.92055 30879 ft 460 kts 310°
2026-05-04 13:31 47.40744 4.88662 29877 ft 463 kts 311°
2026-05-04 13:31 47.43004 4.85163 28786 ft 466 kts 311°
2026-05-04 13:31 47.45225 4.81743 27681 ft 469 kts 311°
2026-05-04 13:32 47.47473 4.78277 26881 ft 464 kts 311°
2026-05-04 13:32 47.49693 4.74845 26101 ft 459 kts 311°
2026-05-04 13:32 47.51886 4.71441 25332 ft 454 kts 311°
2026-05-04 13:32 47.54050 4.68071 24585 ft 450 kts 311°
2026-05-04 13:33 47.56192 4.64731 23853 ft 445 kts 311°
2026-05-04 13:33 47.58310 4.61424 23144 ft 440 kts 311°
2026-05-04 13:33 47.60404 4.58146 22463 ft 435 kts 311°
2026-05-04 13:33 47.62474 4.54905 21989 ft 432 kts 311°
2026-05-04 13:34 47.64539 4.51671 21731 ft 432 kts 311°
2026-05-04 13:34 47.66601 4.48443 21482 ft 430 kts 311°
2026-05-04 13:34 47.68654 4.45217 21233 ft 429 kts 311°
2026-05-04 13:34 47.70697 4.41999 20981 ft 427 kts 311°
2026-05-04 13:35 47.72733 4.38793 20731 ft 426 kts 311°
2026-05-04 13:35 47.76782 4.32420 20231 ft 423 kts 311°
2026-05-04 13:35 47.78795 4.29249 19981 ft 421 kts 311°
2026-05-04 13:36 47.80800 4.26088 19729 ft 419 kts 311°
2026-05-04 13:36 47.82791 4.22938 19479 ft 417 kts 311°
2026-05-04 13:36 47.84774 4.19795 19228 ft 416 kts 310°
2026-05-04 13:36 47.86586 4.16477 18977 ft 411 kts 302°
2026-05-04 13:37 47.88010 4.12812 18728 ft 407 kts 293°
2026-05-04 13:37 47.89035 4.08903 18480 ft 404 kts 284°
2026-05-04 13:37 47.89687 4.04856 18229 ft 401 kts 280°
2026-05-04 13:37 47.90076 4.02173 18071 ft 400 kts 280°
2026-05-04 13:38 47.90865 3.96765 17968 ft 399 kts 280°
2026-05-04 13:38 47.91456 3.92726 17982 ft 399 kts 280°
2026-05-04 13:38 47.92043 3.88686 17981 ft 399 kts 280°
2026-05-04 13:38 47.92630 3.84642 17981 ft 399 kts 280°
2026-05-04 13:39 47.93216 3.80603 17978 ft 399 kts 280°
2026-05-04 13:39 47.93801 3.76553 17981 ft 399 kts 280°
2026-05-04 13:39 47.94379 3.72507 17981 ft 399 kts 280°
2026-05-04 13:39 47.94954 3.68469 17977 ft 396 kts 280°
2026-05-04 13:40 47.95514 3.64545 17933 ft 378 kts 280°
2026-05-04 13:40 47.96082 3.60791 17800 ft 365 kts 284°
2026-05-04 13:40 47.97000 3.57298 17467 ft 360 kts 295°
2026-05-04 13:40 47.98362 3.54174 17037 ft 360 kts 307°
2026-05-04 13:41 48.00075 3.51462 16577 ft 358 kts 312°
2026-05-04 13:41 48.01799 3.48857 16135 ft 356 kts 312°
2026-05-04 13:41 48.03531 3.46231 15695 ft 354 kts 312°
2026-05-04 13:42 48.06973 3.40979 14796 ft 349 kts 312°
2026-05-04 13:42 48.08657 3.38397 14330 ft 346 kts 312°
2026-05-04 13:42 48.10307 3.35862 13886 ft 344 kts 312°
2026-05-04 13:42 48.11988 3.33275 13426 ft 342 kts 312°
2026-05-04 13:43 48.13643 3.30734 12984 ft 339 kts 312°
2026-05-04 13:43 48.15282 3.28218 12621 ft 334 kts 312°
2026-05-04 13:43 48.16851 3.25806 12496 ft 322 kts 312°
2026-05-04 13:43 48.18385 3.23446 12369 ft 311 kts 312°
2026-05-04 13:44 48.19867 3.21160 12185 ft 302 kts 312°
2026-05-04 13:44 48.21327 3.18908 11861 ft 301 kts 312°
2026-05-04 13:44 48.22791 3.16651 11589 ft 301 kts 312°
2026-05-04 13:44 48.24231 3.14433 11234 ft 295 kts 312°
2026-05-04 13:45 48.25668 3.12221 10835 ft 293 kts 313°
2026-05-04 13:45 48.27089 3.10030 10408 ft 294 kts 313°
2026-05-04 13:45 48.28513 3.07813 10083 ft 295 kts 313°
2026-05-04 13:45 48.29933 3.05605 9758 ft 294 kts 313°
2026-05-04 13:46 48.31349 3.03408 9445 ft 292 kts 313°
2026-05-04 13:46 48.32773 3.01201 9133 ft 294 kts 313°
2026-05-04 13:46 48.34186 2.99013 8830 ft 290 kts 314°
2026-05-04 13:46 48.35582 2.96858 8450 ft 284 kts 314°
2026-05-04 13:47 48.36969 2.94720 8030 ft 285 kts 314°
2026-05-04 13:47 48.38347 2.92593 7621 ft 283 kts 314°
2026-05-04 13:47 48.39723 2.90462 7249 ft 285 kts 314°
2026-05-04 13:47 48.41080 2.88345 6884 ft 278 kts 313°
2026-05-04 13:48 48.42421 2.86254 6441 ft 278 kts 314°
2026-05-04 13:48 48.43760 2.84163 6057 ft 276 kts 311°
2026-05-04 13:48 48.44856 2.81820 5959 ft 274 kts 296°
2026-05-04 13:48 48.45519 2.79133 5968 ft 275 kts 282°
2026-05-04 13:49 48.45726 2.76279 5970 ft 275 kts 271°
2026-05-04 13:49 48.45804 2.73407 5970 ft 275 kts 271°
2026-05-04 13:49 48.45885 2.70529 5972 ft 275 kts 272°
2026-05-04 13:49 48.45964 2.67648 5967 ft 274 kts 271°
2026-05-04 13:50 48.46051 2.64769 5969 ft 275 kts 272°
2026-05-04 13:50 48.46157 2.61891 5973 ft 273 kts 273°
2026-05-04 13:50 48.46302 2.59036 5963 ft 277 kts 274°
2026-05-04 13:50 48.46450 2.56157 5973 ft 277 kts 274°
2026-05-04 13:51 48.46587 2.53230 5975 ft 278 kts 274°
2026-05-04 13:51 48.46726 2.50339 5972 ft 277 kts 274°
2026-05-04 13:51 48.46872 2.47455 5963 ft 276 kts 274°
2026-05-04 13:51 48.47026 2.44559 5968 ft 276 kts 274°
2026-05-04 13:52 48.47312 2.38813 5981 ft 275 kts 274°
2026-05-04 13:52 48.47447 2.35938 5969 ft 273 kts 274°
2026-05-04 13:52 48.47581 2.33061 5965 ft 275 kts 275°
2026-05-04 13:53 48.48038 2.30263 5968 ft 277 kts 290°
2026-05-04 13:53 48.48738 2.27568 5971 ft 276 kts 292°
2026-05-04 13:53 48.49454 2.24884 5636 ft 276 kts 292°
2026-05-04 13:54 48.50866 2.19706 4860 ft 271 kts 292°
2026-05-04 13:54 48.51271 2.18258 4628 ft 269 kts 292°
2026-05-04 13:54 48.52678 2.13114 3989 ft 265 kts 292°
2026-05-04 13:55 48.53460 2.10599 3996 ft 266 kts 305°
2026-05-04 13:55 48.56218 2.06873 4006 ft 267 kts 322°
2026-05-04 13:55 48.57678 2.05152 4006 ft 267 kts 322°
2026-05-04 13:56 48.59143 2.03430 4009 ft 267 kts 322°
2026-05-04 13:56 48.60659 2.01985 4001 ft 249 kts 341°
2026-05-04 13:56 48.63453 2.03319 4001 ft 215 kts 64°
2026-05-04 13:57 48.63700 2.05494 3971 ft 209 kts 94°
2026-05-04 13:57 48.63751 2.07652 3779 ft 204 kts 78°
2026-05-04 13:58 48.65496 2.13422 3045 ft 198 kts 62°
2026-05-04 13:58 48.66568 2.16428 2580 ft 192 kts 62°
2026-05-04 13:58 48.67190 2.18169 2336 ft 183 kts 62°
2026-05-04 13:59 48.67774 2.19811 2099 ft 172 kts 62°
2026-05-04 13:59 48.68325 2.21357 1874 ft 162 kts 62°
2026-05-04 13:59 48.69338 2.24203 1463 ft 145 kts 63°
2026-05-04 14:00 48.69801 2.25506 1299 ft 139 kts 63°
2026-05-04 14:00 48.70698 2.28031 929 ft 135 kts 63°
2026-05-04 14:00 48.71143 2.29283 747 ft 134 kts 63°
2026-05-04 14:01 48.71582 2.30525 574 ft 134 kts 63°
2026-05-04 14:01 48.72021 2.31765 386 ft 133 kts 63°
2026-05-04 14:01 48.72730 2.33761 298 ft 63 kts 62°
2026-05-04 14:02 48.72914 2.34282 294 ft 49 kts 62°
2026-05-04 14:02 48.72996 2.34607 293 ft 25 kts 82°
2026-05-04 14:02 48.73025 2.34856 293 ft 23 kts 78°
2026-05-04 14:02 48.73036 2.35017 295 ft 13 kts 82°
2026-05-04 14:03 48.73041 2.35075 293 ft 3 kts 84°
2026-05-04 14:03 48.73041 2.35092 291 ft 0 kts 90°
2026-05-04 14:03 48.73041 2.35116 291 ft 7 kts 92°
2026-05-04 14:04 48.73014 2.35233 293 ft 4 kts 127°
2026-05-04 14:04 48.73002 2.35252 296 ft 1 kts 136°
2026-05-04 14:04 48.72980 2.35277 291 ft 7 kts 146°
2026-05-04 14:05 48.72900 2.35372 291 ft 8 kts 107°
2026-05-04 14:05 48.72905 2.35454 291 ft 7 kts 81°
2026-05-04 14:05 48.72916 2.35506 296 ft 4 kts 53°
2026-05-04 14:06 48.72936 2.35522 294 ft 4 kts 18°
2026-05-04 14:06 48.72952 2.35536 291 ft 2 kts 55°
2026-05-04 14:06 48.72952 2.35578 292 ft 5 kts 98°
2026-05-04 14:06 48.72945 2.35622 293 ft 6 kts 105°
2026-05-04 14:07 48.72937 2.35670 296 ft 3 kts 104°
2026-05-04 14:07 48.72934 2.35686 291 ft 0 kts 104°